Tims Ford Observed Data For Previous 48 Hours

Caption
Day and Hour Reservoir Elevation (behind dam)* Tailwater Elevation (below dam)* Average Hourly Discharge*
11/11/2018 1 AM CST 884.68 750.58 3,791
11/11/2018 2 AM CST 884.65 750.60 3,801
11/11/2018 3 AM CST 884.62 750.59 3,799
11/11/2018 4 AM CST 884.60 750.60 3,809
11/11/2018 5 AM CST 884.58 750.59 3,796
11/11/2018 6 AM CST 884.55 750.59 3,805
11/11/2018 7 AM CST 884.53 750.57 3,807
11/11/2018 8 AM CST 884.50 750.61 3,815
11/11/2018 9 AM CST 884.49 750.56 3,796
11/11/2018 10 AM CST 884.46 750.56 3,802
11/11/2018 11 AM CST 884.44 750.58 3,801
11/11/2018 12 PM CST 884.41 750.61 3,812
11/11/2018 1 PM CST 884.39 750.59 3,801
11/11/2018 2 PM CST 884.35 750.59 3,804
11/11/2018 3 PM CST 884.35 750.58 3,811
11/11/2018 4 PM CST 884.31 750.57 3,807
11/11/2018 5 PM CST 884.30 750.60 3,814
11/11/2018 6 PM CST 884.27 750.58 3,787
11/11/2018 7 PM CST 884.25 750.54 3,786
11/11/2018 8 PM CST 884.22 750.53 3,802
11/11/2018 9 PM CST 884.20 750.50 3,822
11/11/2018 10 PM CST 884.18 750.52 3,811
11/11/2018 11 PM CST 884.14 750.52 3,818
11/12/2018 12 AM CST 884.13 750.55 3,814
11/12/2018 1 AM CST 884.11 750.54 3,820
11/12/2018 2 AM CST 884.08 750.54 3,811
11/12/2018 3 AM CST 884.07 750.52 3,815
11/12/2018 4 AM CST 884.04 750.52 3,812
11/12/2018 5 AM CST 884.03 750.55 3,807
11/12/2018 6 AM CST 884.02 750.53 3,814
11/12/2018 7 AM CST 883.99 750.56 3,820
11/12/2018 8 AM CST 883.98 750.53 3,813
11/12/2018 9 AM CST 883.97 750.52 3,817
11/12/2018 10 AM CST 883.94 750.56 3,813
11/12/2018 11 AM CST 883.96 750.57 3,820
11/12/2018 12 PM CST 883.94 750.57 3,814
11/12/2018 1 PM CST 883.93 750.56 3,826
11/12/2018 2 PM CST 883.93 750.57 3,817
11/12/2018 3 PM CST 883.90 750.60 3,828
11/12/2018 4 PM CST 883.88 750.60 3,818
11/12/2018 5 PM CST 883.87 750.55 3,829
11/12/2018 6 PM CST 883.86 750.56 3,818
11/12/2018 7 PM CST 883.87 750.59 3,828
11/12/2018 8 PM CST 883.84 750.58 3,821
11/12/2018 9 PM CST 883.83 750.57 3,827
11/12/2018 10 PM CST 883.81 750.55 3,820
11/12/2018 11 PM CST 883.79 750.54 3,826
11/13/2018 12 AM CST 883.77 750.55 3,819
11/13/2018 1 AM CST 883.76 750.57 3,825
11/13/2018 2 AM CST 883.75 750.54 3,815
11/13/2018 3 AM CST 883.72 750.56 3,829
11/13/2018 4 AM CST 883.71 750.56 3,822
11/13/2018 5 AM CST 883.68 750.54 3,799
11/13/2018 6 AM CST 883.67 750.52 3,802
11/13/2018 7 AM CST 883.66 750.54 3,798
11/13/2018 8 AM CST 883.64 750.51 3,801
11/13/2018 9 AM CST 883.63 750.53 3,802
11/13/2018 10 AM CST 883.60 750.54 3,807

Elevations are in feet above sea level. Discharges are in cubic feet per second and are reported at the end of the hour.